This is the latest recevied weather packets stored in our database for station/object IZ5MJO-13. If no packets are shown the sender has not sent any weather packets the latest 10 day(s).
| Time | Temp. | Humidity | Pressure | Rain* | Wind** | Luminosity | Snow |
|---|---|---|---|---|---|---|---|
| 1788121205 | 21.67° C | 52% | 1005.6 hPa | - | - | - | - |
| 1788120305 | 22.22° C | 51% | 1005.6 hPa | - | - | - | - |
| 1788119405 | 22.78° C | 48% | 1005.5 hPa | - | - | - | - |
| 1788118505 | 22.78° C | 45% | 1005.5 hPa | - | - | - | - |
| 1788117605 | 23.33° C | 50% | 1005.4 hPa | - | - | - | - |
| 1788116705 | 23.33° C | 46% | 1005.3 hPa | - | - | - | - |
| 1788115804 | 24.44° C | 44% | 1005.3 hPa | - | - | - | - |
| 1788114904 | 24.44° C | 41% | 1005.2 hPa | - | - | - | - |
| 1788114004 | 25° C | 38% | 1005 hPa | - | - | - | - |
| 1788113104 | 25.56° C | 40% | 1004.8 hPa | - | - | - | - |
| 1788112207 | 26.67° C | 39% | 1004.5 hPa | - | - | - | - |
| 1788111307 | 29.44° C | 34% | 1004.6 hPa | - | - | - | - |
| 1788110406 | 31.11° C | 32% | 1004.4 hPa | - | - | - | - |
| 1788109506 | 31.67° C | 32% | 1004.3 hPa | - | - | - | - |
| 1788108606 | 32.78° C | 30% | 1004.3 hPa | - | - | - | - |
| 1788107706 | 32.78° C | 30% | 1004.2 hPa | - | - | - | - |
| 1788106805 | 32.78° C | 29% | 1004.2 hPa | - | - | - | - |
| 1788105905 | 33.89° C | 28% | 1004.2 hPa | - | - | - | - |
| 1788105005 | 33.89° C | 26% | 1004.3 hPa | - | - | - | - |
| 1788104105 | 34.44° C | 25% | 1004.2 hPa | - | - | - | - |
| 1788103204 | 35° C | 26% | 1004.3 hPa | - | - | - | - |
| 1788102304 | 34.44° C | 26% | 1004.3 hPa | - | - | - | - |
| 1788101404 | 35.56° C | 26% | 1004.4 hPa | - | - | - | - |
| 1788100504 | 36.11° C | 25% | 1004.5 hPa | - | - | - | - |
| 1788099604 | 36.11° C | 28% | 1004.5 hPa | - | - | - | - |
* Rain since midnight (hover to see other rain measurements)
** Current wind speed in m/s (hover to see current wind gust speed)